STARLINK-1626 (46167 NORAD) Tracking and Keplerian Element Data

This shows tracking and keplerian element data for the satellite.

Feedback or suggestion? Click here.




ElementValue
Catalog46167
NameSTARLINK-1626
Epoch Orbit180
Epoch Day330.91667824
Epoch Year2020
RAAN339.7011
Inclination52.999
Eccentricity0.0001209
Argument of Perigee78.5126
Mean Anonmoly111.492
Mean Motion15.05555698
Decay Rate0.00036407
L11 46167U 20057BC 20330.91667824 .00036407 00000-0 25066-2 0 9990
L22 46167 52.9990 339.7011 0001209 78.5126 111.4920 15.05555698 1801

Live tracking and technical data element details for STARLINK-1626 (NORAD 46167). STARLINK-1626 can be tracked NOW for your location showing map with azimuth and elevation plus other details from your city location.

Track the satellite on the map from your city or location and see movement details for azimuth, elevation, latitude, longitude, range, height, and movement on the map or in text.







IsCatalogInMostPopularTable: catalog: 46167, numindb: 13
Update: records affected: 1



GetName: 46167 STARLINK-1626

Hit Count: updated at: Thu, 26 Nov 2020 23:45:53 GMT